Location: Hodgson Observatory
(42.9992°N, 96.7577°W)
Time: 20:27:45
(UTC-05:00)

Daily predictions for brighter satellites

Satellite Brightness Start Highest point End
(mag) Time Altitude Azimuth Time Altitude Azimuth Time Altitude Azimuth
Cosmos 1408 4.2 20:44:11 10° NNE 20:46:48 18° ENE 20:49:25 10° ESE
Cosmos 1486 Rocket 4.3 20:42:05 10° NNW 20:47:13 53° ENE 20:52:20 10° SE
ERBS 3.4 20:45:57 10° NNW 20:49:09 34° NE 20:52:21 10° ESE
Meteor 1-27 4.3 20:45:13 10° S 20:50:51 87° W 20:56:28 10° N
Cosmos 1455 2.3 20:48:45 10° S 20:52:28 55° E 20:56:11 10° NNE
Cosmos 1869 4.0 20:52:58 10° SSE 20:56:30 33° E 21:00:04 10° NNE
CENTAUR R/B 3.0 20:53:00 10° SW 20:59:03 68° NW 21:06:00 10° NNE
CZ-3B DEB 2.7 20:55:20 10° WNW 20:59:45 31° WSW 21:02:18 10° S
OTV 4 2.9 20:59:23 10° SW 21:00:43 12° SSW 21:02:02 10° S
Cosmos 1400 Rocket 3.3 20:58:34 10° NNW 21:02:26 63° W 21:06:18 10° S
Cosmos 2026 Rocket 4.4 20:57:05 10° N 21:03:02 43° ENE 21:08:51 10° SSE
Cosmos 1697 Rocket 3.4 20:58:37 10° SW 21:04:12 59° WNW 21:09:47 10° NNE
SeaSat 1 4.2 21:00:54 10° E 21:04:12 18° NE 21:07:30 10° N
Cosmos 1892 3.3 21:04:42 10° NNW 21:08:27 58° W 21:12:11 10° S
Cosmos 2297 Rocket 4.4 21:06:33 10° NW 21:10:59 24° WSW 21:15:25 10° SSW
ALOS 4.2 21:07:01 10° SSW 21:11:09 31° W 21:15:18 10° NNW
Nadezhda 4 Rocket 4.4 21:07:47 10° NNW 21:14:00 67° W 21:20:14 10° S
DELTA 2 R/B (1) 4.5 21:09:00 10° W 21:14:08 38° SSW 21:18:45 12° SE
USA 186 1.7 21:12:14 10° S 21:14:51 65° W 21:17:42 10° NNW
Cosmos 1315 Rocket 2.8 21:10:45 10° N 21:14:53 88° WSW 21:18:54 10° S
H-2A R/B 4.5 21:13:05 10° SSW 21:16:40 34° W 21:20:15 10° NNW
Cosmos 1503 Rocket 4.3 21:13:12 10° N 21:18:23 52° ENE 21:22:48 13° SE
Cosmos 2263 Rocket 3.0 21:15:25 10° N 21:20:28 34° NE 21:24:22 16° ESE
Abrixas rocket 2.1 21:18:07 10° WSW 21:21:24 89° SE 21:24:41 10° ENE
Cosmos 1354 Rocket 4.2 21:16:30 10° NNW 21:21:44 56° ENE 21:26:10 14° SE
Cosmos 1634 Rocket 4.0 21:15:42 10° S 21:21:58 75° E 21:28:18 10° N
YAOGAN 6 3.6 21:20:14 16° ESE 21:22:27 30° ENE 21:25:40 10° N
Cosmos 1092 Rocket 4.2 21:16:27 10° N 21:22:48 80° W 21:29:09 10° S
Cosmos 1707 Rocket 3.8 21:20:23 10° SSW 21:24:49 76° W 21:29:16 10° N
Cosmos 2322 Rocket 2.4 21:19:33 10° S 21:24:51 45° ESE 21:30:11 10° NE
Cosmos 1655 Rocket 4.3 21:18:38 10° N 21:24:54 52° ENE 21:30:50 11° SSE
H-2A R/B 4.0 21:24:03 10° E 21:26:17 13° ENE 21:28:33 10° NNE
Cosmos 1733 Rocket 3.4 21:27:07 10° N 21:31:25 46° ENE 21:34:27 18° SE
Meteor 1-29 2.8 21:30:26 10° NNE 21:33:56 79° ESE 21:37:23 10° S
Helios 1B rocket 2.4 21:30:22 10° NNE 21:34:29 84° WNW 21:38:35 10° SSW
Cosmos 2360 Rocket 3.3 21:34:16 18° SE 21:36:11 22° E 21:40:25 10° NE
USA 267 4.5 21:30:15 10° NE 21:36:21 43° NNW 21:42:27 10° W
Cosmos 1980 Rocket 3.0 21:31:11 10° SW 21:36:44 55° WNW 21:42:21 10° NNE
Lacrosse 4 Rocket 1.6 21:32:43 10° NNW 21:37:00 62° ENE 21:39:39 22° SE
Meteor 2-20 Rocket 4.4 21:31:35 10° N 21:37:43 83° E 21:43:51 10° S
Cosmos 1862 Rocket 4.0 21:34:03 13° SSE 21:37:47 43° E 21:42:03 10° NNE
Intercosmos 25 Rocket 2.9 21:36:23 10° S 21:39:30 71° E 21:43:19 10° NNE
Cosmos 1825 2.1 21:36:43 10° N 21:40:31 80° E 21:43:20 17° SSE
Cosmos 1862 3.4 21:37:52 10° N 21:41:50 55° E 21:44:08 23° SSE
Envisat 3.3 21:43:35 10° S 21:48:37 66° WSW 21:53:41 10° NNW
Cosmos 1939 Rocket 3.1 21:45:36 13° S 21:49:12 70° WSW 21:53:13 10° NNW
CZ-4B DEB 3.7 21:48:16 14° S 21:50:42 43° W 21:53:39 10° NNW
Cosmos 2242 Rocket 3.7 21:46:58 10° S 21:51:30 81° W 21:56:01 10° N
SL-16 R/B 2.1 21:46:07 10° SSW 21:51:46 74° ESE 21:57:26 10° NNE
SPOT 5 3.5 21:54:50 27° ESE 21:56:44 38° ENE 22:01:06 10° N
ATLAS 5 CENTAUR R/B 2.9 21:56:56 10° NNW 22:02:40 48° NE 22:05:54 27° ESE
Cosmos 2279 Rocket 4.0 21:58:07 10° S 22:04:22 88° W 22:10:39 10° N
MetOp-B 4.2 22:03:13 29° SE 22:05:52 61° ENE 22:11:10 10° N
OAO 3 Rocket 4.0 22:02:02 10° WSW 22:06:24 32° S 22:07:08 31° SSE
Resurs 01 Rocket 4.4 22:05:05 10° WSW 22:07:29 14° W 22:09:53 10° WNW
Meteor 1-26 Rocket 4.5 22:06:23 28° SSE 22:09:04 49° E 22:14:37 10° NNE
Cosmos 2278 Rocket 4.5 22:09:50 10° NNE 22:11:26 11° NE 22:13:01 10° ENE
USA 234 3.8 22:07:22 21° SSE 22:11:36 50° SW 22:17:58 10° WNW
SPOT 1/Viking Rocket 4.2 22:11:28 32° ESE 22:13:03 41° ENE 22:17:55 10° N
ARGOS 3.3 22:11:51 34° SE 22:13:56 55° ENE 22:19:11 10° N
Atlas Centaur 2 3.8 22:10:09 10° SW 22:16:16 26° SSE 22:16:54 26° SSE
Cosmos 1408 4.5 22:18:48 10° NNW 22:22:00 28° W 22:24:36 13° SW
BREEZE-M DEB (TANK) 4.2 22:19:01 10° W 22:22:46 67° N 22:35:13 10° E
Cosmos 1844 Rocket 3.9 22:19:33 10° N 22:24:11 26° NE 22:25:44 23° ENE
ERS-1 Rocket 3.3 22:22:11 25° S 22:25:04 61° WSW 22:30:04 10° NNW
ERBS 3.9 22:22:49 10° WNW 22:25:44 26° SW 22:26:02 25° SW
MOS 1-B Rocket 3.9 22:26:13 37° SE 22:28:37 69° ENE 22:34:15 10° N
Sich 1 Rocket 3.5 22:25:59 10° N 22:30:29 87° E 22:31:27 55° SSE
Meteor 1-14 Rocket 4.1 22:34:54 10° N 22:40:34 80° E 22:42:12 49° SSE
SeaSat 1 2.4 22:39:59 52° S 22:41:11 78° WSW 22:46:09 10° NNW
Cosmos 1777 Rocket 4.4 22:37:20 10° N 22:42:25 45° ENE 22:43:02 43° E
Cosmos 2219 Rocket 4.1 22:45:20 14° ENE 22:45:20 14° ENE 22:46:34 10° NE
H-2A R/B 2.9 22:44:20 36° NE 22:44:20 36° NE 22:47:54 10° N
Cosmos 1908 Rocket 3.9 22:43:15 10° NNW 22:47:32 60° W 22:48:15 51° SW
USA 245 4.3 22:46:03 40° S 22:48:15 75° WSW 22:53:33 10° NNW
Landsat 7 3.9 22:50:09 56° ENE 22:50:14 57° ENE 22:54:55 10° N
Milstar 3 4.2 22:46:34 10° WSW 22:50:57 19° SSW 22:50:57 19° SSW
USA 229 DEB 3.6 22:51:55 33° S 22:55:06 63° ESE 23:01:57 10° NE
USA 229 3.6 22:52:13 34° S 22:55:12 63° ESE 23:02:02 10° NE
Cosmos 2237 4.2 22:55:27 58° ESE 22:55:27 58° ESE 23:01:03 10° NNE
Abrixas rocket 4.0 22:55:27 10° WNW 22:58:01 31° NNW 22:58:01 31° NNW
DMSP B5D2-2 4.3 22:53:46 10° NNE 22:58:27 51° E 22:58:27 51° E
Meteor 1-25 Rocket 4.0 22:54:17 10° N 22:59:55 85° E 23:00:42 67° SSE
Cosmos 1782 Rocket 3.6 22:57:06 10° NNW 23:01:20 73° WNW 23:01:20 73° WNW
Okean 2 Rocket 3.2 22:57:25 10° N 23:01:36 72° NNE 23:01:36 72° NNE
Cosmos 1867 3.4 22:57:20 10° NW 23:02:49 79° WSW 23:03:20 71° S
COSMOS 2428 3.1 23:05:02 47° ENE 23:05:02 47° ENE 23:09:36 10° NE
Cosmos 2263 Rocket 3.3 22:59:19 10° NW 23:04:23 36° WSW 23:06:05 30° SW
H-2A R/B 1.8 23:04:41 77° SSW 23:05:02 84° WSW 23:10:02 10° NNW
Terra 2.1 23:05:46 54° NE 23:05:46 54° NE 23:10:02 10° N
Cosmos 2322 Rocket 4.1 23:04:15 10° WSW 23:09:04 29° NW 23:13:56 10° N
IGS 5A 4.4 23:11:39 41° NNE 23:11:39 41° NNE 23:14:38 10° N
Lacrosse 4 Rocket 3.9 23:13:02 10° WNW 23:15:13 14° WSW 23:16:01 13° WSW
SL-08 RB Rocket 4.4 23:16:00 44° WSW 23:16:14 45° W 23:20:39 10° NNW
Cosmos 2360 Rocket 2.8 23:15:51 20° SW 23:19:43 56° WNW 23:25:19 10° NNE
Meteor 1-20 Rocket 4.2 23:16:21 10° NNW 23:21:53 72° W 23:22:21 68° SW
Cosmos 1844 3.9 23:18:10 10° NNW 23:23:44 55° ENE 23:23:44 55° ENE
Cosmos 1417 Rocket 4.4 23:23:45 66° E 23:23:51 67° E 23:30:09 10° NNE
Cosmos 1745 Rocket 4.4 23:18:35 10° N 23:24:41 48° ENE 23:24:42 48° ENE
Cosmos 2322 4.2 23:22:28 29° SW 23:25:18 59° WNW 23:30:57 10° NNE
Cosmos 968 Rocket 4.4 23:21:10 10° NW 23:25:56 38° WSW 23:26:25 37° WSW
Geosat 4.0 23:23:28 10° NNE 23:28:09 75° N 23:28:09 75° N
ASTEX 1 3.6 23:30:23 67° N 23:30:23 67° N 23:34:43 10° N
Meteor 2-6 Rocket 4.2 23:31:39 82° E 23:31:39 82° E 23:37:35 10° NNE
Okean 1-7 4.1 23:32:09 42° WNW 23:32:09 42° WNW 23:36:11 10° N
Cosmos 1782 4.3 23:34:53 34° NNW 23:34:53 34° NNW 23:37:20 10° N
CZ-4C R/B 3.5 23:36:23 10° NNW 23:43:06 46° NE 23:44:54 40° E
CZ-4B R/B 4.3 23:38:46 10° NNE 23:41:50 40° NNE 23:41:50 40° NNE
Cosmos 2333 Rocket 3.3 23:46:50 34° NE 23:46:50 34° NE 23:50:18 10° NE
Cosmos 2333 4.3 23:47:30 75° N 23:47:30 75° N 23:52:51 10° NNE
ATLAS 5 CENTAUR R/B 3.3 23:41:50 10° NW 23:47:21 36° WSW 23:47:28 36° WSW
Cosmos 2237 Rocket 3.6 23:56:36 28° NE 23:56:36 28° NE 23:59:28 10° NE
